TimeCDT,TemperatureF,Dew PointF,Humidity,Sea Level PressureIn,VisibilityMPH,Wind Direction,Wind SpeedMPH,Gust SpeedMPH,PrecipitationIn,Events,Conditions,WindDirDegrees,DateUTC
12:15 AM,62.4,57.2,83,30.05,10.0,South,4.6,-,N/A,,Clear,190,2013-09-04 05:15:00
12:35 AM,62.6,57.4,83,30.06,10.0,South,3.5,-,N/A,,Clear,180,2013-09-04 05:35:00
12:55 AM,60.8,56.1,85,30.06,10.0,Calm,Calm,-,N/A,,Clear,0,2013-09-04 05:55:00
1:15 AM,61.0,56.3,85,30.07,10.0,Calm,Calm,-,N/A,,Clear,0,2013-09-04 06:15:00
1:35 AM,60.3,56.1,86,30.07,10.0,Calm,Calm,-,N/A,,Clear,0,2013-09-04 06:35:00
1:55 AM,61.0,56.5,85,30.07,10.0,South,4.6,-,N/A,,Clear,180,2013-09-04 06:55:00
2:15 AM,59.9,55.8,86,30.08,10.0,South,4.6,-,N/A,,Clear,170,2013-09-04 07:15:00
2:35 AM,59.5,55.8,87,30.08,10.0,South,3.5,-,N/A,,Clear,190,2013-09-04 07:35:00
2:55 AM,59.9,55.9,87,30.08,10.0,South,3.5,-,N/A,,Clear,180,2013-09-04 07:55:00
3:15 AM,59.2,55.6,88,30.09,10.0,SSE,3.5,-,N/A,,Clear,160,2013-09-04 08:15:00
3:35 AM,59.0,55.4,88,30.08,10.0,SSE,4.6,-,N/A,,Clear,160,2013-09-04 08:35:00
3:55 AM,58.6,55.4,89,30.09,10.0,South,4.6,-,N/A,,Clear,170,2013-09-04 08:55:00
4:15 AM,58.5,55.0,88,30.09,10.0,South,3.5,-,N/A,,Clear,170,2013-09-04 09:15:00
4:35 AM,58.8,55.2,88,30.09,10.0,Calm,Calm,-,N/A,,Clear,0,2013-09-04 09:35:00
4:55 AM,58.1,54.9,89,30.10,10.0,SE,3.5,-,N/A,,Clear,140,2013-09-04 09:55:00
5:15 AM,57.9,54.3,88,30.10,10.0,Calm,Calm,-,N/A,,Clear,0,2013-09-04 10:15:00
5:35 AM,57.6,54.5,90,30.10,10.0,Calm,Calm,-,N/A,,Clear,0,2013-09-04 10:35:00
5:55 AM,57.7,54.7,90,30.11,10.0,Calm,Calm,-,N/A,,Clear,0,2013-09-04 10:55:00
6:15 AM,57.6,54.5,90,30.11,10.0,SE,3.5,-,N/A,,Clear,130,2013-09-04 11:15:00
6:35 AM,57.2,54.0,89,30.11,10.0,Calm,Calm,-,N/A,,Clear,0,2013-09-04 11:35:00
6:55 AM,57.2,54.1,89,30.13,10.0,Calm,Calm,-,N/A,,Clear,0,2013-09-04 11:55:00
7:15 AM,57.6,54.3,89,30.13,10.0,Calm,Calm,-,N/A,,Clear,0,2013-09-04 12:15:00
7:35 AM,58.3,55.4,90,30.14,10.0,West,3.5,-,N/A,,Clear,260,2013-09-04 12:35:00
7:55 AM,60.1,56.7,88,30.14,10.0,Calm,Calm,-,N/A,,Clear,0,2013-09-04 12:55:00
8:15 AM,62.4,57.9,85,30.14,10.0,Calm,Calm,-,N/A,,Clear,0,2013-09-04 13:15:00
8:35 AM,65.1,59.2,81,30.15,10.0,Calm,Calm,-,N/A,,Clear,0,2013-09-04 13:35:00
8:55 AM,68.4,60.1,75,30.15,10.0,WSW,3.5,-,N/A,,Clear,240,2013-09-04 13:55:00
9:15 AM,71.1,61.0,70,30.16,10.0,WSW,3.5,-,N/A,,Clear,240,2013-09-04 14:15:00
9:35 AM,73.6,61.2,65,30.16,10.0,WSW,3.5,-,N/A,,Clear,240,2013-09-04 14:35:00
9:55 AM,75.9,59.7,57,30.16,10.0,SW,5.8,-,N/A,,Clear,230,2013-09-04 14:55:00
10:15 AM,77.0,60.6,57,30.17,10.0,WSW,5.8,-,N/A,,Clear,240,2013-09-04 15:15:00
10:35 AM,77.7,59.7,54,30.17,10.0,WSW,9.2,-,N/A,,Clear,240,2013-09-04 15:35:00
10:55 AM,78.8,58.3,49,30.16,10.0,WSW,9.2,-,N/A,,Clear,240,2013-09-04 15:55:00
11:15 AM,80.1,59.2,49,30.16,10.0,WSW,8.1,-,N/A,,Clear,250,2013-09-04 16:15:00
11:35 AM,80.6,59.2,48,30.16,10.0,SW,5.8,-,N/A,,Clear,230,2013-09-04 16:35:00
11:55 AM,81.7,59.5,47,30.16,10.0,WSW,8.1,-,N/A,,Clear,250,2013-09-04 16:55:00
12:15 PM,83.7,59.0,43,30.16,10.0,WSW,5.8,-,N/A,,Clear,240,2013-09-04 17:15:00
12:35 PM,84.2,56.5,39,30.16,10.0,SW,8.1,-,N/A,,Clear,230,2013-09-04 17:35:00
12:55 PM,84.6,56.3,38,30.15,10.0,WSW,6.9,-,N/A,,Clear,250,2013-09-04 17:55:00
1:15 PM,85.8,54.9,35,30.15,10.0,West,4.6,-,N/A,,Clear,260,2013-09-04 18:15:00
1:35 PM,86.7,54.7,33,30.14,10.0,West,8.1,-,N/A,,Clear,260,2013-09-04 18:35:00
1:55 PM,87.1,55.2,34,30.14,10.0,West,3.5,-,N/A,,Clear,270,2013-09-04 18:55:00
2:15 PM,86.5,55.6,35,30.13,10.0,SW,6.9,-,N/A,,Clear,230,2013-09-04 19:15:00
2:35 PM,87.1,56.8,36,30.13,10.0,SW,5.8,-,N/A,,Clear,220,2013-09-04 19:35:00
2:55 PM,87.6,56.3,34,30.11,10.0,SW,5.8,-,N/A,,Clear,220,2013-09-04 19:55:00
3:15 PM,87.6,55.4,33,30.11,10.0,SW,6.9,-,N/A,,Clear,230,2013-09-04 20:15:00
3:35 PM,88.2,54.1,31,30.11,10.0,SW,3.5,-,N/A,,Clear,220,2013-09-04 20:35:00
3:55 PM,88.2,54.7,32,30.10,10.0,SW,3.5,-,N/A,,Clear,230,2013-09-04 20:55:00
4:15 PM,88.5,54.9,32,30.10,10.0,Calm,Calm,-,N/A,,Clear,0,2013-09-04 21:15:00
4:35 PM,88.2,55.4,33,30.10,10.0,Calm,Calm,-,N/A,,Clear,0,2013-09-04 21:35:00
4:55 PM,85.8,58.8,40,30.10,10.0,Calm,Calm,-,N/A,,Clear,0,2013-09-04 21:55:00
5:15 PM,87.6,55.9,34,30.09,10.0,Calm,Calm,-,N/A,,Clear,0,2013-09-04 22:15:00
5:35 PM,87.8,56.1,34,30.09,10.0,WSW,3.5,-,N/A,,Clear,240,2013-09-04 22:35:00
5:55 PM,87.6,55.2,33,30.09,10.0,Calm,Calm,-,N/A,,Clear,0,2013-09-04 22:55:00
6:15 PM,84.9,58.1,40,30.09,10.0,Calm,Calm,-,N/A,,Clear,0,2013-09-04 23:15:00
6:35 PM,82.4,61.3,49,30.09,10.0,WSW,3.5,-,N/A,,Clear,240,2013-09-04 23:35:00
6:55 PM,81.1,62.4,53,30.10,10.0,West,4.6,-,N/A,,Clear,270,2013-09-04 23:55:00
7:15 PM,79.9,62.6,55,30.10,10.0,West,3.5,-,N/A,,Clear,280,2013-09-05 00:15:00
7:35 PM,77.0,64.6,65,30.10,10.0,WNW,4.6,-,N/A,,Clear,290,2013-09-05 00:35:00
7:55 PM,76.1,64.9,68,30.10,10.0,SW,4.6,-,N/A,,Clear,230,2013-09-05 00:55:00
8:15 PM,76.3,63.7,65,30.10,10.0,West,3.5,-,N/A,,Clear,280,2013-09-05 01:15:00
8:35 PM,74.8,64.2,69,30.11,10.0,Calm,Calm,-,N/A,,Clear,0,2013-09-05 01:35:00
8:55 PM,71.6,64.4,78,30.11,10.0,Calm,Calm,-,N/A,,Clear,0,2013-09-05 01:55:00
9:15 PM,71.1,64.2,79,30.12,10.0,Calm,Calm,-,N/A,,Clear,0,2013-09-05 02:15:00
9:35 PM,71.2,63.5,76,30.13,10.0,Calm,Calm,-,N/A,,Clear,0,2013-09-05 02:35:00
9:55 PM,70.2,63.5,79,30.13,10.0,WSW,4.6,-,N/A,,Clear,250,2013-09-05 02:55:00
10:15 PM,69.4,63.0,80,30.13,10.0,West,5.8,-,N/A,,Clear,280,2013-09-05 03:15:00
10:35 PM,68.7,62.8,81,30.14,10.0,West,3.5,-,N/A,,Clear,270,2013-09-05 03:35:00
10:55 PM,68.7,63.0,82,30.14,10.0,WSW,4.6,-,N/A,,Clear,240,2013-09-05 03:55:00
11:15 PM,67.8,62.8,84,30.14,10.0,WSW,4.6,-,N/A,,Clear,250,2013-09-05 04:15:00
11:35 PM,66.4,62.1,86,30.14,10.0,Calm,Calm,-,N/A,,Clear,0,2013-09-05 04:35:00
11:55 PM,66.9,62.2,85,30.14,10.0,West,3.5,-,N/A,,Clear,270,2013-09-05 04:55:00